Wind_Speed
38 40 42 45 48 52 56 60 63 66 69 72 76 81 85 89 91 90 85 81 78 77 77 75 73 73 74 74 73 72 71 71 72 71 68 66 65 64 64 63 65 74 86
38 41 43 46 50 54 57 61 64 67 70 73 77 82 86 89 89 85 81 78 77 77 76 74 74 74 75 73 70 69 67 67 69 72 73 71 69 70 67 64 64 67 76
40 42 45 48 51 55 58 62 65 67 70 74 78 83 87 88 86 81 77 76 76 76 75 74 74 76 74 69 65 61 58 55 56 63 69 74 75 73 69 68 65 65 68
41 44 46 49 53 56 59 63 65 68 71 75 79 84 86 86 83 78 75 75 76 75 74 74 75 74 70 64 58 54 50 46 43 46 54 64 72 75 73 71 68 65 65
42 45 47 50 53 56 60 63 66 69 72 75 80 84 85 83 80 76 74 75 75 74 73 74 74 71 65 57 52 49 44 39 33 31 36 47 60 69 73 71 70 67 65
43 45 48 51 53 57 60 64 66 69 72 76 80 83 84 81 77 74 73 74 73 72 72 73 72 67 58 51 46 43 39 35 29 22 20 29 43 57 67 69 68 68 66
45 47 49 51 54 57 61 64 67 69 72 76 80 83 82 79 75 72 72 73 72 70 71 73 70 63 52 45 40 37 35 33 29 22 13 14 26 41 55 63 65 65 64
48 49 51 53 55 58 61 64 67 69 72 76 80 82 80 76 73 71 71 72 71 70 71 72 69 60 49 40 35 31 29 28 26 21 15 7 13 27 41 52 59 61 62
53 53 54 55 57 59 62 65 67 69 72 76 79 81 79 75 71 70 71 71 70 69 70 72 69 60 49 39 33 28 25 23 21 18 14 8 6 16 29 41 50 55 58
56 57 57 57 58 60 63 65 67 69 72 76 78 79 77 74 70 69 69 69 69 68 69 72 69 60 50 39 31 27 23 20 17 15 11 8 6 11 21 31 41 49 54
59 60 61 60 60 61 63 65 67 69 72 75 78 78 76 72 69 68 68 68 68 68 69 71 70 62 52 40 31 27 23 21 18 15 12 9 8 10 16 25 34 42 48
61 63 64 64 63 63 64 66 67 68 71 75 77 77 75 72 68 67 66 66 66 67 68 70 70 65 55 44 33 28 24 22 19 17 15 12 11 11 15 20 28 35 42
62 64 66 67 65 64 65 66 67 68 71 74 76 77 74 71 68 66 65 65 65 66 67 69 70 67 58 48 37 31 26 23 20 17 14 12 11 12 14 18 23 29 36
62 65 67 69 68 66 66 67 67 68 70 73 76 76 74 70 67 65 64 64 64 65 66 67 69 68 62 53 42 34 29 24 19 16 12 10 9 10 12 16 20 24 30
63 66 68 70 70 68 67 67 67 68 70 73 75 76 74 70 67 64 63 63 63 64 65 66 68 69 65 56 47 37 31 25 19 15 10 7 5 7 8 11 16 21 26
63 67 69 71 72 70 68 68 68 68 69 72 74 75 73 70 66 63 62 62 62 63 64 65 66 68 66 58 50 40 33 26 20 14 10 7 3 1 4 7 12 17 21
63 67 70 72 73 72 69 68 68 68 69 71 73 74 73 70 66 63 61 61 61 61 62 63 65 66 65 60 51 42 34 26 20 15 12 8 5 3 3 5 9 13 18
63 66 69 72 74 73 71 69 68 67 68 70 72 73 72 69 66 62 60 60 60 60 60 61 62 64 64 61 54 44 35 28 21 16 13 11 8 6 5 5 7 10 14
62 65 69 71 73 74 72 70 68 67 67 68 70 72 72 69 65 62 60 58 59 59 59 60 60 62 63 61 55 47 38 30 22 17 14 12 11 9 7 6 6 7 11
62 65 68 71 73 74 73 70 68 67 66 67 69 71 71 69 65 62 59 58 57 58 58 59 59 59 60 60 56 49 41 32 23 18 15 13 12 11 9 8 7 6 9
61 64 67 69 72 74 73 70 68 66 66 66 68 69 70 68 65 62 59 57 56 56 57 56 56 57 57 58 56 51 43 34 25 18 15 13 12 11 10 9 8 7 7
60 63 65 68 70 72 73 71 68 66 65 65 66 68 69 68 65 61 58 56 54 54 53 53 53 54 54 55 55 52 45 36 27 19 15 13 11 11 11 10 9 8 7
58 62 64 66 69 70 73 71 68 66 64 64 64 66 68 68 66 61 58 55 53 52 51 51 51 51 51 51 52 52 48 39 30 21 16 12 11 10 10 10 10 9 8
57 60 63 65 67 69 71 71 69 66 64 62 63 64 66 68 66 62 58 54 51 50 49 49 49 49 49 49 49 49 49 43 34 24 17 12 10 9 9 9 10 10 9
55 59 61 63 65 67 69 70 69 65 63 61 61 62 64 66 66 64 59 55 52 49 49 48 48 47 47 48 48 47 47 46 40 30 21 14 10 9 8 8 9 9 10
54 57 60 61 63 65 67 69 68 65 62 60 60 60 62 64 64 63 60 55 52 50 48 48 47 46 46 46 46 45 44 44 43 37 26 17 11 8 7 7 8 8 10
Wind_Direction
323 323 323 323 322 322 322 323 323 324 324 325 326 325 324 322 322 322 323 323 323 322 321 319 316 314 310 305 300 293 285 277 268 261 254 248 244 242 241 240 238 234 228
325 325 325 325 324 324 324 324 325 325 326 327 328 327 326 325 325 325 326 326 326 325 324 322 321 318 315 310 305 299 291 281 271 261 252 246 241 239 237 237 237 236 231
327 327 327 327 326 326 326 326 327 327 328 329 329 329 328 327 328 328 329 329 329 328 328 327 325 323 320 317 314 309 302 291 278 265 253 244 238 237 235 235 235 235 233
331 330 329 328 328 328 328 328 329 330 331 331 331 331 330 330 330 331 332 332 332 332 331 331 330 328 326 324 323 321 316 306 291 273 257 245 237 233 231 233 233 233 233
334 333 331 330 330 330 330 330 331 332 333 333 333 333 332 332 333 334 335 335 335 335 335 335 334 333 331 330 332 333 331 326 312 289 263 246 236 231 228 229 231 231 232
339 336 334 333 333 333 332 333 333 334 335 335 335 335 335 335 335 336 337 338 338 338 339 340 339 337 336 336 338 342 346 347 341 322 281 249 235 229 225 225 227 229 230
343 340 338 337 336 335 335 335 336 336 337 337 337 337 337 337 338 338 339 341 341 342 343 344 343 342 340 339 341 349 356 1 1 357 331 264 235 227 223 222 223 225 228
349 345 342 340 339 338 337 337 338 338 339 339 339 339 339 339 340 341 342 343 344 345 346 348 347 346 343 340 340 347 356 2 6 7 1 319 242 226 222 221 220 221 224
354 350 346 344 342 340 340 339 339 340 341 341 341 341 341 341 342 343 344 346 347 348 349 351 351 349 346 341 337 340 346 353 358 2 0 345 266 230 222 221 220 220 221
357 354 350 346 344 342 342 341 341 342 342 343 343 343 343 343 344 345 346 348 349 350 352 354 354 353 350 343 336 334 333 335 338 340 339 327 285 240 226 222 220 219 220
357 355 352 349 346 344 343 343 343 343 344 345 345 345 345 345 346 347 349 350 351 353 354 356 357 356 354 349 340 333 328 322 319 315 308 294 272 246 231 224 222 220 219
356 355 353 351 348 345 345 344 344 345 346 346 346 347 347 347 348 349 351 352 353 355 356 358 359 359 358 355 347 340 329 320 312 306 297 284 266 249 234 227 223 220 219
355 355 354 352 349 347 346 346 345 346 347 347 348 348 349 349 350 351 352 353 355 357 358 359 1 1 0 359 355 348 340 330 321 311 298 283 268 251 236 227 222 220 219
354 354 354 353 350 348 347 347 347 347 348 349 349 350 350 350 351 352 354 355 357 358 360 1 2 3 3 2 1 356 349 342 335 327 312 292 269 252 237 226 221 218 217
353 354 353 353 351 349 348 347 348 348 349 350 350 351 351 352 352 354 355 356 358 360 1 3 4 5 5 5 4 2 357 352 348 343 336 321 284 252 234 223 217 214 213
352 353 353 353 352 350 348 348 348 348 349 350 351 352 352 353 353 354 356 358 359 1 2 4 6 7 7 7 6 5 4 2 1 3 4 2 349 241 209 206 203 202 204
350 351 352 352 352 351 349 348 349 349 350 351 352 352 353 354 354 355 356 358 0 2 3 5 7 8 9 9 9 9 9 10 13 18 23 31 44 73 130 171 184 189 194
349 349 350 351 351 351 349 348 349 349 350 351 352 353 354 354 355 355 356 358 1 3 4 6 7 9 10 11 11 12 14 16 21 27 33 42 55 72 97 131 156 176 187
347 348 349 350 350 351 349 348 349 350 350 351 353 354 354 355 355 355 356 358 1 3 5 7 9 10 11 12 13 14 17 20 25 32 40 49 60 69 84 106 129 153 173
346 346 347 348 349 350 349 348 349 349 350 351 353 354 354 355 356 356 357 358 0 3 5 7 9 10 12 13 15 17 18 20 26 34 43 53 62 69 78 88 102 129 156
343 344 345 347 348 349 349 348 348 349 350 351 353 354 354 355 356 357 357 358 0 2 5 6 8 10 12 14 16 18 19 21 25 33 42 52 62 70 77 82 89 109 139
341 342 343 345 346 347 349 348 348 349 350 351 352 354 354 355 357 357 358 359 0 2 4 5 8 10 12 14 17 19 20 21 25 31 40 51 62 71 77 82 86 98 126
338 340 341 343 344 346 348 348 347 348 349 350 352 353 354 355 357 358 358 359 0 2 3 5 7 10 12 15 18 20 21 22 24 29 37 47 58 69 77 84 90 97 115
334 337 339 341 343 344 346 347 347 347 348 350 351 352 353 355 356 358 358 359 0 2 3 5 7 9 12 14 17 20 22 23 25 28 34 42 52 65 79 86 93 99 111
331 334 336 338 340 342 344 346 347 346 347 349 350 351 352 354 355 357 358 359 360 1 3 5 6 9 11 13 16 19 21 23 25 27 29 36 46 58 74 89 99 105 114
326 330 333 335 338 340 342 345 346 346 346 348 349 351 352 353 354 356 357 359 360 1 2 4 5 7 10 12 15 17 20 22 24 25 26 29 37 52 69 88 103 115 122
Height
5819 5812 5804 5796 5787 5777 5766 5755 5743 5730 5716 5702 5686 5668 5648 5627 5606 5584 5565 5547 5531 5514 5498 5481 5465 5449 5434 5419 5405 5393 5385 5380 5378 5381 5386 5393 5399 5403 5408 5414 5421 5428 5438
5814 5806 5798 5788 5778 5768 5757 5745 5733 5719 5705 5689 5672 5654 5633 5612 5590 5569 5550 5532 5515 5498 5481 5463 5447 5429 5412 5395 5378 5365 5354 5348 5345 5346 5354 5365 5375 5378 5387 5395 5401 5407 5417
5807 5799 5790 5781 5770 5760 5748 5736 5723 5709 5693 5677 5659 5639 5617 5595 5575 5555 5537 5519 5501 5483 5465 5447 5428 5409 5389 5371 5355 5339 5326 5318 5314 5313 5319 5332 5345 5354 5368 5374 5382 5389 5398
5801 5792 5783 5773 5763 5751 5739 5726 5712 5698 5682 5665 5646 5625 5604 5583 5562 5543 5525 5507 5488 5470 5451 5433 5413 5392 5371 5353 5337 5323 5309 5298 5291 5288 5291 5300 5314 5330 5345 5354 5363 5373 5381
5795 5786 5776 5766 5755 5743 5730 5717 5702 5687 5671 5653 5633 5612 5591 5570 5550 5532 5514 5496 5477 5458 5439 5420 5399 5378 5359 5342 5327 5313 5299 5287 5277 5272 5272 5278 5290 5305 5322 5335 5345 5355 5365
5789 5779 5769 5758 5747 5734 5721 5707 5692 5676 5660 5641 5622 5601 5580 5559 5540 5522 5505 5487 5468 5449 5429 5409 5388 5368 5349 5335 5321 5308 5295 5283 5273 5266 5264 5267 5275 5286 5301 5316 5327 5339 5350
5783 5773 5762 5751 5739 5726 5712 5698 5682 5666 5649 5631 5611 5590 5570 5550 5531 5514 5497 5479 5460 5441 5422 5402 5381 5361 5344 5330 5318 5307 5296 5285 5276 5268 5264 5264 5268 5275 5287 5301 5313 5325 5335
5778 5767 5755 5743 5731 5718 5704 5689 5674 5657 5640 5621 5601 5581 5561 5541 5523 5506 5488 5470 5452 5434 5415 5395 5374 5355 5339 5326 5316 5307 5297 5289 5281 5274 5269 5267 5268 5272 5279 5290 5301 5313 5323
5772 5760 5748 5736 5723 5710 5696 5681 5666 5649 5632 5613 5593 5573 5553 5534 5517 5499 5481 5464 5446 5427 5409 5389 5369 5351 5335 5323 5313 5306 5298 5291 5284 5279 5274 5271 5270 5272 5276 5282 5291 5302 5312
5767 5755 5742 5729 5716 5703 5689 5674 5658 5642 5625 5606 5586 5567 5547 5528 5511 5494 5476 5458 5441 5423 5405 5386 5366 5348 5332 5320 5310 5303 5296 5290 5285 5280 5276 5273 5271 5271 5274 5278 5284 5293 5302
5762 5749 5736 5723 5710 5696 5682 5668 5652 5635 5618 5599 5580 5561 5542 5524 5506 5489 5472 5455 5437 5420 5402 5384 5365 5347 5331 5318 5307 5300 5293 5288 5283 5278 5274 5272 5270 5270 5272 5275 5279 5286 5294
5757 5744 5731 5718 5704 5690 5676 5661 5646 5629 5612 5593 5575 5556 5537 5519 5502 5486 5469 5452 5435 5418 5400 5382 5364 5346 5330 5316 5305 5297 5290 5284 5279 5275 5272 5270 5269 5268 5269 5272 5275 5281 5288
5752 5740 5726 5713 5699 5685 5670 5655 5640 5624 5606 5589 5570 5552 5533 5516 5499 5483 5467 5451 5434 5417 5400 5382 5364 5346 5329 5315 5303 5294 5287 5281 5276 5272 5269 5267 5266 5266 5267 5269 5272 5276 5282
5748 5735 5722 5708 5694 5679 5665 5650 5635 5619 5602 5585 5567 5548 5530 5513 5497 5481 5465 5450 5433 5417 5400 5383 5365 5347 5330 5315 5302 5293 5285 5278 5273 5269 5266 5264 5263 5263 5264 5266 5269 5273 5278
5744 5731 5718 5704 5689 5674 5660 5645 5630 5614 5598 5581 5564 5546 5528 5511 5495 5480 5464 5449 5433 5417 5401 5384 5366 5349 5331 5316 5303 5293 5285 5277 5272 5267 5264 5263 5262 5262 5263 5264 5267 5270 5275
5740 5727 5714 5700 5685 5670 5656 5641 5626 5611 5595 5578 5561 5543 5526 5509 5494 5479 5464 5449 5434 5418 5402 5386 5370 5353 5335 5320 5306 5295 5286 5279 5273 5269 5266 5264 5263 5262 5263 5264 5266 5269 5273
5736 5723 5710 5696 5682 5667 5652 5638 5623 5608 5592 5576 5559 5542 5525 5509 5493 5478 5464 5450 5435 5420 5405 5389 5373 5357 5341 5325 5311 5299 5290 5282 5277 5272 5269 5267 5265 5265 5265 5266 5268 5270 5274
5732 5719 5707 5693 5679 5664 5649 5635 5620 5605 5590 5574 5558 5541 5524 5508 5493 5478 5465 5451 5437 5422 5408 5393 5377 5362 5347 5331 5317 5305 5295 5287 5282 5277 5274 5271 5270 5269 5269 5270 5271 5273 5276
5728 5715 5703 5690 5676 5661 5646 5632 5617 5603 5588 5572 5557 5540 5524 5508 5493 5479 5466 5452 5438 5425 5411 5396 5382 5367 5352 5338 5324 5311 5301 5293 5287 5283 5280 5277 5275 5274 5274 5274 5275 5276 5278
5723 5711 5699 5686 5673 5659 5644 5629 5615 5601 5586 5571 5556 5540 5524 5509 5494 5480 5466 5453 5439 5426 5412 5399 5386 5373 5359 5345 5331 5318 5308 5300 5294 5289 5286 5283 5281 5280 5279 5279 5280 5281 5282
5718 5707 5695 5683 5670 5656 5642 5627 5613 5599 5585 5570 5555 5540 5525 5509 5495 5481 5468 5454 5440 5427 5414 5402 5390 5378 5365 5352 5339 5326 5315 5307 5300 5296 5292 5290 5288 5286 5286 5285 5285 5286 5287
5713 5703 5691 5680 5667 5654 5640 5625 5611 5597 5584 5570 5556 5541 5526 5511 5497 5482 5469 5456 5443 5431 5419 5408 5396 5384 5372 5360 5347 5334 5323 5314 5307 5302 5299 5296 5294 5293 5292 5291 5291 5291 5292
5708 5698 5687 5676 5664 5651 5637 5623 5609 5595 5582 5569 5556 5542 5527 5513 5499 5485 5471 5459 5446 5435 5424 5412 5401 5389 5378 5367 5355 5343 5332 5322 5315 5309 5305 5303 5301 5299 5298 5297 5297 5297 5298
5702 5693 5683 5672 5660 5648 5635 5621 5607 5593 5581 5568 5555 5542 5528 5514 5500 5486 5473 5461 5450 5439 5427 5416 5405 5394 5383 5372 5361 5351 5341 5331 5322 5316 5312 5309 5307 5305 5304 5303 5303 5303 5304
5696 5688 5678 5667 5656 5644 5632 5619 5605 5592 5579 5566 5554 5541 5527 5514 5500 5487 5475 5463 5451 5440 5429 5418 5408 5397 5387 5376 5366 5356 5347 5338 5329 5322 5318 5314 5312 5311 5310 5309 5309 5309 5310
5689 5681 5672 5663 5652 5641 5629 5616 5603 5590 5577 5565 5553 5540 5527 5513 5500 5486 5474 5463 5452 5441 5430 5420 5409 5399 5390 5380 5371 5362 5354 5345 5337 5330 5324 5320 5317 5316 5315 5314 5314 5314 5315